Weather History for Goodland, KS

Change the Weather History Date:

Friday, January 3, 2014

  Actual Average Record
Temperature  
Mean Temperature 43 °F 30 °F  
Max Temperature 66 °F 42 °F 68 °F (2006)
Min Temperature 20 °F 17 °F -26 °F (1959)
Degree Days  
Heating Degree Days 22 35  
Month to date heating degree days 89 107  
Since 1 July heating degree days 2455 2514  
Cooling Degree Days 0 0  
Month to date cooling degree days 0 0  
Year to date cooling degree days 0 0  
Moisture  
Dew Point 18 °F    
Average Humidity 45    
Maximum Humidity 74    
Minimum Humidity 15    
Precipitation  
Precipitation 0.00 in 0.02 in 0.29 in (1949)
Month to date precipitation T 0.04  
Year to date precipitation T 0.04  
Snow  
Snow 0.00 in 0.10 in - ()
Month to date snowfall T 0.5  
Since 1 July snowfall 6.8 13.2  
Snow Depth 0.00 in    
Sea Level Pressure  
Sea Level Pressure 29.74 in    
Wind  
Wind Speed 12 mph (SW)    
Max Wind Speed 21 mph    
Max Gust Speed 27 mph    
Visibility 10 miles    
Events      
T = Trace of Precipitation, MM = Missing Value Source: NWS Daily Summary

Daily Weather History Graph

Daily Weather History Graph

Search for Another Location

Airport:

Trip Planner

Search our weather history database for the weather conditions in past years. The results will help you decide how hot, cold, wet, or windy it might be!

Date:

Astronomy

Jan. 03, 2014 Rise Set
Actual Time 7:06 AM MST 4:35 PM MST
Civil Twilight 6:36 AM MST 5:05 PM MST
Nautical Twilight 6:03 AM MST 5:39 PM MST
Astronomical Twilight 5:30 AM MST 6:12 PM MST
Moon 8:35 AM MST (1/3) 7:46 PM MST (1/3)
Length of Visible Light 10h 28m
Length of Day
9h 28m
Waxing Crescent, 8% of the Moon is Illuminated
Jan 3
Waxing Crescent
Jan 7
First Quarter
Jan 15
Full
Jan 23
Last Quarter
Jan 30
New

Hourly Weather History & Observations

Time (MST) Temp. Windchill Dew Point Humidity Pressure Visibility Wind Dir Wind Speed Gust Speed Precip Events Conditions
12:53 AM 25.0 °F 12.6 °F 18.0 °F 75% 30.05 in 10.0 mi South 15.0 mph - N/A   Clear
1:53 AM 24.1 °F 11.5 °F 18.0 °F 77% 30.02 in 10.0 mi South 15.0 mph - N/A   Clear
2:53 AM 27.0 °F 15.6 °F 18.0 °F 69% 29.98 in 10.0 mi SSW 13.8 mph - N/A   Clear
3:53 AM 23.0 °F 13.9 °F 16.0 °F 74% 29.97 in 10.0 mi SSW 8.1 mph - N/A   Clear
4:53 AM 24.1 °F 17.0 °F 16.0 °F 71% 29.96 in 10.0 mi WSW 5.8 mph - N/A   Clear
5:53 AM 23.0 °F 13.9 °F 15.1 °F 72% 29.94 in 10.0 mi WSW 8.1 mph - N/A   Clear
6:53 AM 25.0 °F 15.5 °F 16.0 °F 69% 29.91 in 10.0 mi West 9.2 mph - N/A   Clear
7:53 AM 28.0 °F 24.2 °F 17.1 °F 63% 29.89 in 10.0 mi SSW 3.5 mph - N/A   Clear
8:53 AM 37.9 °F 34.4 °F 21.0 °F 51% 29.87 in 10.0 mi WSW 4.6 mph - N/A   Clear
9:53 AM 48.9 °F - 23.0 °F 36% 29.82 in 10.0 mi SSW 5.8 mph - N/A   Clear
10:53 AM 57.0 °F - 19.0 °F 23% 29.75 in 10.0 mi SSW 11.5 mph - N/A   Clear
11:53 AM 63.0 °F - 18.0 °F 18% 29.69 in 10.0 mi SSW 12.7 mph - N/A   Clear
12:53 PM 64.9 °F - 19.0 °F 17% 29.63 in 10.0 mi SW 16.1 mph - N/A   Clear
1:53 PM 66.0 °F - 18.0 °F 16% 29.60 in 10.0 mi SW 17.3 mph - N/A   Clear
2:53 PM 64.9 °F - 18.0 °F 16% 29.57 in 10.0 mi SSW 13.8 mph - N/A   Clear
3:53 PM 61.0 °F - 18.0 °F 19% 29.59 in 10.0 mi SW 12.7 mph - N/A   Clear
4:53 PM 55.9 °F - 19.0 °F 24% 29.57 in 10.0 mi SSW 17.3 mph - N/A   Clear
5:53 PM 53.1 °F - 18.0 °F 25% 29.57 in 10.0 mi SSW 18.4 mph - N/A   Clear
6:53 PM 46.0 °F 41.4 °F 18.0 °F 33% 29.60 in 10.0 mi SW 9.2 mph - N/A   Clear
7:53 PM 46.9 °F - 19.0 °F 33% 29.58 in 10.0 mi SW 15.0 mph - N/A   Clear
8:53 PM 43.0 °F 37.7 °F 19.0 °F 38% 29.58 in 10.0 mi WSW 9.2 mph - N/A   Clear
9:42 PM 42.1 °F 34.5 °F 18.0 °F 38% 29.63 in 10.0 mi North 15.0 mph - N/A   Clear
9:53 PM 43.0 °F 37.2 °F 18.0 °F 37% 29.61 in 10.0 mi NNW 10.4 mph - N/A   Clear
10:53 PM 44.1 °F 39.0 °F 19.9 °F 38% 29.61 in 10.0 mi North 9.2 mph - N/A   Clear
11:53 PM 42.1 °F 34.2 °F 23.0 °F 47% 29.61 in 10.0 mi North 16.1 mph - N/A   Clear